Year,Month,Day,Hour,Minute,Value (Times are PST for temperature in C)
2010,02,19,00,00,3.80
2010,02,19,00,01,3.80
2010,02,19,00,02,3.80
2010,02,19,00,03,3.80
2010,02,19,00,04,3.80
2010,02,19,00,05,3.80
2010,02,19,00,06,3.80
2010,02,19,00,07,3.80
2010,02,19,00,08,3.80
2010,02,19,00,09,3.90
2010,02,19,00,10,3.90
2010,02,19,00,11,3.90
2010,02,19,00,12,3.90
2010,02,19,00,13,4.00
2010,02,19,00,14,4.00
2010,02,19,00,15,4.00
2010,02,19,00,16,4.10
2010,02,19,00,17,4.10
2010,02,19,00,18,4.10
2010,02,19,00,19,4.00
2010,02,19,00,20,4.10
2010,02,19,00,21,4.00
2010,02,19,00,22,4.10
2010,02,19,00,23,4.10
2010,02,19,00,24,4.10
2010,02,19,00,25,4.10
2010,02,19,00,26,4.10
2010,02,19,00,27,4.10
2010,02,19,00,28,4.10
2010,02,19,00,29,4.10
2010,02,19,00,30,4.10
2010,02,19,00,31,4.10
2010,02,19,00,32,4.10
2010,02,19,00,33,4.10
2010,02,19,00,34,4.10
2010,02,19,00,35,4.10
2010,02,19,00,36,4.00
2010,02,19,00,37,4.00
2010,02,19,00,38,4.00
2010,02,19,00,39,4.00
2010,02,19,00,40,4.00
2010,02,19,00,41,4.00
2010,02,19,00,42,4.10
2010,02,19,00,43,4.10
2010,02,19,00,44,4.10
2010,02,19,00,45,4.20
2010,02,19,00,46,4.20
2010,02,19,00,47,4.20
2010,02,19,00,48,4.20
2010,02,19,00,49,4.20
2010,02,19,00,50,4.20
2010,02,19,00,51,4.20
2010,02,19,00,52,4.20
2010,02,19,00,53,4.10
2010,02,19,00,54,4.10
2010,02,19,00,55,4.10
2010,02,19,00,56,4.10
2010,02,19,00,57,4.00
2010,02,19,00,58,4.00
2010,02,19,00,59,4.00
2010,02,19,01,00,4.00
2010,02,19,01,01,4.00
2010,02,19,01,02,4.00
2010,02,19,01,03,4.00
2010,02,19,01,04,4.00
2010,02,19,01,05,4.10
2010,02,19,01,06,4.10
2010,02,19,01,07,4.10
2010,02,19,01,08,4.10
2010,02,19,01,09,4.10
2010,02,19,01,10,4.10
2010,02,19,01,11,4.10
2010,02,19,01,12,4.10
2010,02,19,01,13,4.10
2010,02,19,01,14,4.10
2010,02,19,01,15,4.10
2010,02,19,01,16,4.10
2010,02,19,01,17,4.10
2010,02,19,01,18,4.00
2010,02,19,01,19,4.00
2010,02,19,01,20,4.00
2010,02,19,01,21,4.00
2010,02,19,01,22,4.00
2010,02,19,01,23,4.00
2010,02,19,01,24,4.00
2010,02,19,01,25,3.90
2010,02,19,01,26,3.90
2010,02,19,01,27,3.90
2010,02,19,01,28,3.90
2010,02,19,01,29,3.90
2010,02,19,01,30,3.90
2010,02,19,01,31,3.90
2010,02,19,01,32,3.90
2010,02,19,01,33,3.90
2010,02,19,01,34,3.90
2010,02,19,01,35,3.90
2010,02,19,01,36,3.90
2010,02,19,01,37,3.90
2010,02,19,01,38,3.90
2010,02,19,01,39,3.90
2010,02,19,01,40,3.90
2010,02,19,01,41,3.90
2010,02,19,01,42,3.90
2010,02,19,01,43,3.90
2010,02,19,01,44,3.90
2010,02,19,01,45,3.90
2010,02,19,01,46,4.00
2010,02,19,01,47,4.00
2010,02,19,01,48,4.00
2010,02,19,01,49,4.00
2010,02,19,01,50,4.10
2010,02,19,01,51,4.00
2010,02,19,02,06,4.00
2010,02,19,02,07,4.00
2010,02,19,02,08,4.00
2010,02,19,02,09,4.00
2010,02,19,02,10,4.00
2010,02,19,02,11,4.00
2010,02,19,02,12,4.10
2010,02,19,02,13,4.10
2010,02,19,02,14,4.10
2010,02,19,02,15,4.10
2010,02,19,02,16,4.10
2010,02,19,02,17,4.10
2010,02,19,02,18,4.10
2010,02,19,02,19,4.10
2010,02,19,02,20,4.10
2010,02,19,02,21,4.10
2010,02,19,02,22,4.10
2010,02,19,02,23,4.20
2010,02,19,02,24,4.20
2010,02,19,02,25,4.20
2010,02,19,02,26,4.30
2010,02,19,02,27,4.30
2010,02,19,02,28,4.30
2010,02,19,02,29,4.40
2010,02,19,02,30,4.40
2010,02,19,02,31,4.40
2010,02,19,02,32,4.40
2010,02,19,02,33,4.50
2010,02,19,02,34,4.50
2010,02,19,02,35,4.50
2010,02,19,02,36,4.50
2010,02,19,02,37,4.50
2010,02,19,02,38,4.40
2010,02,19,02,39,4.40
2010,02,19,02,40,4.40
2010,02,19,02,41,4.40
2010,02,19,02,42,4.40
2010,02,19,02,43,4.40
2010,02,19,02,44,4.40
2010,02,19,02,45,4.40
2010,02,19,02,46,4.40
2010,02,19,02,47,4.40
2010,02,19,02,48,4.40
2010,02,19,02,49,4.40
2010,02,19,02,50,4.40
2010,02,19,02,51,4.30
2010,02,19,02,52,4.30
2010,02,19,02,53,4.30
2010,02,19,02,54,4.30
2010,02,19,02,55,4.30
2010,02,19,02,56,4.30
2010,02,19,02,57,4.30
2010,02,19,02,58,4.30
2010,02,19,02,59,4.30
2010,02,19,03,00,4.20
2010,02,19,03,01,4.20
2010,02,19,03,02,4.20
2010,02,19,03,03,4.10
2010,02,19,03,04,4.10
2010,02,19,03,05,4.10
2010,02,19,03,06,4.10
2010,02,19,03,07,4.10
2010,02,19,03,08,4.10
2010,02,19,03,09,4.10
2010,02,19,03,10,4.10
2010,02,19,03,11,4.10
2010,02,19,03,12,4.10
2010,02,19,03,13,4.10
2010,02,19,03,14,4.00
2010,02,19,03,15,4.00
2010,02,19,03,16,4.00
2010,02,19,03,17,4.00
2010,02,19,03,18,4.00
2010,02,19,03,19,4.00
2010,02,19,03,20,3.90
2010,02,19,03,21,3.90
2010,02,19,03,22,3.80
2010,02,19,03,23,3.80
2010,02,19,03,24,3.80
2010,02,19,03,25,3.80
2010,02,19,03,26,3.90
2010,02,19,03,27,3.90
2010,02,19,03,28,3.90
2010,02,19,03,29,3.80
2010,02,19,03,30,3.80
2010,02,19,03,31,3.90
2010,02,19,03,32,3.90
2010,02,19,03,33,3.90
2010,02,19,03,34,3.80
2010,02,19,03,35,3.80
2010,02,19,03,36,3.80
2010,02,19,03,37,3.80
2010,02,19,03,38,3.80
2010,02,19,03,39,3.80
2010,02,19,03,40,3.80
2010,02,19,03,41,3.70
2010,02,19,03,42,3.70
2010,02,19,03,43,3.70
2010,02,19,03,44,3.70
2010,02,19,03,45,3.70
2010,02,19,03,46,3.70
2010,02,19,03,47,3.70
2010,02,19,03,48,3.70
2010,02,19,03,49,3.70
2010,02,19,03,50,3.70
2010,02,19,03,51,3.70
2010,02,19,03,52,3.70
2010,02,19,03,53,3.70
2010,02,19,03,54,3.70
2010,02,19,03,55,3.70
2010,02,19,03,56,3.80
2010,02,19,03,57,3.80
2010,02,19,03,58,3.80
2010,02,19,03,59,4.40
2010,02,19,04,06,3.90
2010,02,19,04,07,3.90
2010,02,19,04,08,3.90
2010,02,19,04,09,3.80
2010,02,19,04,10,3.80
2010,02,19,04,11,3.80
2010,02,19,04,12,3.80
2010,02,19,04,13,3.80
2010,02,19,04,14,3.70
2010,02,19,04,15,3.70
2010,02,19,04,16,3.70
2010,02,19,04,17,3.70
2010,02,19,04,18,3.60
2010,02,19,04,19,3.60
2010,02,19,04,20,3.60
2010,02,19,04,21,3.60
2010,02,19,04,22,3.60
2010,02,19,04,23,3.60
2010,02,19,04,24,3.60
2010,02,19,04,25,3.60
2010,02,19,04,26,3.60
2010,02,19,04,27,3.60
2010,02,19,04,28,3.60
2010,02,19,04,29,3.60
2010,02,19,04,30,3.60
2010,02,19,04,31,3.60
2010,02,19,04,32,3.60
2010,02,19,04,33,3.60
2010,02,19,04,34,3.60
2010,02,19,04,35,3.60
2010,02,19,04,36,3.60
2010,02,19,04,37,3.70
2010,02,19,04,38,3.70
2010,02,19,04,39,3.70
2010,02,19,04,40,3.70
2010,02,19,04,41,3.70
2010,02,19,04,42,3.70
2010,02,19,04,43,3.80
2010,02,19,04,44,3.80
2010,02,19,04,45,3.70
2010,02,19,04,46,3.70
2010,02,19,04,47,3.70
2010,02,19,04,48,3.70
2010,02,19,04,49,3.70
2010,02,19,04,50,3.60
2010,02,19,04,51,3.60
2010,02,19,04,52,3.60
2010,02,19,04,53,3.60
2010,02,19,04,54,3.60
2010,02,19,04,55,3.60
2010,02,19,04,56,3.60
2010,02,19,04,57,3.60
2010,02,19,04,58,3.70
2010,02,19,04,59,3.70
2010,02,19,05,00,3.70
2010,02,19,05,01,3.80
2010,02,19,05,02,3.70
2010,02,19,05,03,3.70
2010,02,19,05,04,3.70
2010,02,19,05,05,3.70
2010,02,19,05,06,3.70
2010,02,19,05,07,3.70
2010,02,19,05,08,3.70
2010,02,19,05,09,3.70
2010,02,19,05,10,3.80
2010,02,19,05,11,3.80
2010,02,19,05,12,3.80
2010,02,19,05,13,3.80
2010,02,19,05,14,3.80
2010,02,19,05,15,3.80
2010,02,19,05,16,3.80
2010,02,19,05,17,3.70
2010,02,19,05,18,3.70
2010,02,19,05,19,3.70
2010,02,19,05,20,3.70
2010,02,19,05,21,3.70
2010,02,19,05,22,3.70
2010,02,19,05,23,3.70
2010,02,19,05,24,3.70
2010,02,19,05,25,3.70
2010,02,19,05,26,3.70
2010,02,19,05,27,3.70
2010,02,19,05,28,3.70
2010,02,19,05,29,3.70
2010,02,19,05,30,3.70
2010,02,19,05,31,3.70
2010,02,19,05,32,3.70
2010,02,19,05,33,3.70
2010,02,19,05,34,3.80
2010,02,19,05,35,3.70
2010,02,19,05,36,3.70
2010,02,19,05,37,3.70
2010,02,19,05,38,3.70
2010,02,19,05,39,3.70
2010,02,19,05,40,3.70
2010,02,19,05,41,3.70
2010,02,19,05,42,3.70
2010,02,19,05,43,3.70
2010,02,19,05,44,3.70
2010,02,19,05,45,3.70
2010,02,19,05,46,3.70
2010,02,19,05,47,3.70
2010,02,19,05,48,3.70
2010,02,19,05,49,3.70
2010,02,19,05,50,3.70
2010,02,19,05,51,3.70
2010,02,19,05,52,3.70
2010,02,19,05,53,3.70
2010,02,19,05,54,3.70
2010,02,19,05,55,3.70
2010,02,19,05,56,3.70
2010,02,19,05,57,3.70
2010,02,19,05,58,3.80
2010,02,19,05,59,3.80
2010,02,19,06,00,3.80
2010,02,19,06,01,3.80
2010,02,19,06,02,3.80
2010,02,19,06,03,3.80
2010,02,19,06,04,3.80
2010,02,19,06,05,3.80
2010,02,19,06,06,3.80
2010,02,19,06,07,3.80
2010,02,19,06,08,3.80
2010,02,19,06,09,3.80
2010,02,19,06,10,3.80
2010,02,19,06,11,3.80
2010,02,19,06,12,3.80
2010,02,19,06,13,3.80
2010,02,19,06,14,3.80
2010,02,19,06,15,3.80
2010,02,19,06,16,3.80
2010,02,19,06,17,3.90
2010,02,19,06,18,3.90
2010,02,19,06,19,3.90
2010,02,19,06,20,3.90
2010,02,19,06,21,3.90
2010,02,19,06,22,3.90
2010,02,19,06,23,3.90
2010,02,19,06,24,3.90
2010,02,19,06,25,3.80
2010,02,19,06,26,3.80
2010,02,19,06,27,3.80
2010,02,19,06,28,3.80
2010,02,19,06,29,3.80
2010,02,19,06,30,3.80
2010,02,19,06,31,3.80
2010,02,19,06,32,3.80
2010,02,19,06,33,3.80
2010,02,19,06,34,3.80
2010,02,19,06,35,3.80
2010,02,19,06,36,3.80
2010,02,19,06,37,3.70
2010,02,19,06,38,3.80
2010,02,19,06,39,3.80
2010,02,19,06,40,3.70
2010,02,19,06,41,3.80
2010,02,19,06,42,3.70
2010,02,19,06,43,3.80
2010,02,19,06,44,3.80
2010,02,19,06,45,3.80
2010,02,19,06,46,3.80
2010,02,19,06,47,3.80
2010,02,19,06,48,3.80
2010,02,19,06,49,3.80
2010,02,19,06,50,3.80
2010,02,19,06,51,3.80
2010,02,19,06,52,3.80
2010,02,19,06,53,3.80
2010,02,19,06,54,3.80
2010,02,19,06,55,3.80
2010,02,19,06,56,3.80
2010,02,19,06,57,3.80
2010,02,19,06,58,3.80
2010,02,19,06,59,3.80
2010,02,19,07,00,3.80
2010,02,19,07,01,3.80
2010,02,19,07,02,3.80
2010,02,19,07,03,3.80
2010,02,19,07,04,3.80
2010,02,19,07,05,3.80
2010,02,19,07,06,3.80
2010,02,19,07,07,3.80
2010,02,19,07,08,3.80
2010,02,19,07,09,3.80
2010,02,19,07,10,3.80
2010,02,19,07,11,3.80
2010,02,19,07,12,3.80
2010,02,19,07,13,3.80
2010,02,19,07,14,3.80
2010,02,19,07,15,3.80
2010,02,19,07,16,3.80
2010,02,19,07,17,3.80
2010,02,19,07,18,3.80
2010,02,19,07,19,3.80
2010,02,19,07,20,3.90
2010,02,19,07,21,3.90
2010,02,19,07,22,3.90
2010,02,19,07,23,3.90
2010,02,19,07,24,3.90
2010,02,19,07,25,4.00
2010,02,19,07,26,4.00
2010,02,19,07,27,4.00
2010,02,19,07,28,4.10
2010,02,19,07,29,4.10
2010,02,19,07,30,4.10
2010,02,19,07,31,4.10
2010,02,19,07,32,4.10
2010,02,19,07,33,4.10
2010,02,19,07,34,4.10
2010,02,19,07,35,4.10
2010,02,19,07,36,4.10
2010,02,19,07,37,4.10
2010,02,19,07,38,4.10
2010,02,19,07,39,4.10
2010,02,19,07,40,4.10
2010,02,19,07,41,4.20
2010,02,19,07,42,4.20
2010,02,19,07,43,4.20
2010,02,19,07,44,4.20
2010,02,19,07,45,4.20
2010,02,19,07,46,4.30
2010,02,19,07,47,4.30
2010,02,19,07,48,4.30
2010,02,19,07,49,4.30
2010,02,19,07,50,4.30
2010,02,19,07,51,4.30
2010,02,19,07,52,4.30
2010,02,19,07,53,4.30
2010,02,19,07,54,4.30
2010,02,19,07,55,4.30
2010,02,19,07,56,4.30
2010,02,19,07,57,4.30
2010,02,19,07,58,4.30
2010,02,19,07,59,4.30
2010,02,19,08,00,4.30
2010,02,19,08,01,4.30
2010,02,19,08,02,4.30
2010,02,19,08,03,4.30
2010,02,19,08,04,4.30
2010,02,19,08,05,4.30
2010,02,19,08,06,4.30
2010,02,19,08,07,4.30
2010,02,19,08,08,4.30
2010,02,19,08,09,4.30
2010,02,19,08,10,4.30
2010,02,19,08,11,4.30
2010,02,19,08,12,4.20
2010,02,19,08,13,4.20
2010,02,19,08,14,4.20
2010,02,19,08,15,4.20
2010,02,19,08,16,4.20
2010,02,19,08,17,4.20
2010,02,19,08,18,4.20
2010,02,19,08,19,4.20
2010,02,19,08,20,4.20
2010,02,19,08,21,4.20
2010,02,19,08,22,4.20
2010,02,19,08,23,4.20
2010,02,19,08,24,4.20
2010,02,19,08,25,4.20
2010,02,19,08,26,4.20
2010,02,19,08,27,4.20
2010,02,19,08,28,4.20
2010,02,19,08,29,4.20
2010,02,19,08,30,4.20
2010,02,19,08,31,4.30
2010,02,19,08,32,4.30
2010,02,19,08,33,4.30
2010,02,19,08,34,4.30
2010,02,19,08,35,4.30
2010,02,19,08,36,4.30
2010,02,19,08,37,4.30
2010,02,19,08,38,4.30
2010,02,19,08,39,4.30
2010,02,19,08,40,4.30
2010,02,19,08,41,4.30
2010,02,19,08,42,4.30
2010,02,19,08,43,4.30
2010,02,19,08,44,4.30
2010,02,19,08,45,4.30
2010,02,19,08,46,4.40
2010,02,19,08,47,4.40
2010,02,19,08,48,4.40
2010,02,19,08,49,4.40
2010,02,19,08,50,4.50
2010,02,19,08,51,4.60
2010,02,19,08,52,4.60
2010,02,19,08,53,4.60
2010,02,19,08,54,4.70
2010,02,19,08,55,4.70
2010,02,19,08,56,4.80
2010,02,19,08,57,4.80
2010,02,19,08,58,4.80
2010,02,19,08,59,4.90
2010,02,19,09,00,4.90
2010,02,19,09,01,4.90
2010,02,19,09,02,5.00
2010,02,19,09,03,5.10
2010,02,19,09,04,5.10
2010,02,19,09,05,5.20
2010,02,19,09,06,5.20
2010,02,19,09,07,5.30
2010,02,19,09,08,5.30
2010,02,19,09,09,5.40
2010,02,19,09,10,5.50
2010,02,19,09,11,5.50
2010,02,19,09,12,5.60
2010,02,19,09,13,5.60
2010,02,19,09,14,5.70
2010,02,19,09,15,5.70
2010,02,19,09,16,5.70
2010,02,19,09,17,5.80
2010,02,19,09,18,5.80
2010,02,19,09,19,5.80
2010,02,19,09,20,5.90
2010,02,19,09,21,5.90
2010,02,19,09,22,6.00
2010,02,19,09,23,6.10
2010,02,19,09,24,6.10
2010,02,19,09,25,6.20
2010,02,19,09,26,6.20
2010,02,19,09,27,6.30
2010,02,19,09,28,6.30
2010,02,19,09,29,6.30
2010,02,19,09,30,6.40
2010,02,19,09,31,6.40
2010,02,19,09,32,6.40
2010,02,19,09,33,6.40
2010,02,19,09,34,6.40
2010,02,19,09,35,6.40
2010,02,19,09,36,6.50
2010,02,19,09,37,6.50
2010,02,19,09,38,6.50
2010,02,19,09,39,6.50
2010,02,19,09,40,6.50
2010,02,19,09,41,6.50
2010,02,19,09,42,6.50
2010,02,19,09,43,6.60
2010,02,19,09,44,6.60
2010,02,19,09,45,6.60
2010,02,19,09,46,6.60
2010,02,19,09,47,6.60
2010,02,19,09,48,6.60
2010,02,19,09,49,6.60
2010,02,19,09,50,6.60
2010,02,19,09,51,6.70
2010,02,19,09,52,6.70
2010,02,19,09,53,6.70
2010,02,19,09,54,6.80
2010,02,19,09,55,6.80
2010,02,19,09,56,6.80
2010,02,19,09,57,6.80
2010,02,19,09,58,6.90
2010,02,19,09,59,6.90
2010,02,19,10,00,6.90
2010,02,19,10,01,6.90
2010,02,19,10,02,7.00
2010,02,19,10,03,7.00
2010,02,19,10,04,7.00
2010,02,19,10,05,7.00
2010,02,19,10,06,7.10
2010,02,19,10,07,7.10
2010,02,19,10,08,7.10
2010,02,19,10,09,7.10
2010,02,19,10,10,7.10
2010,02,19,10,11,7.10
2010,02,19,10,12,7.10
2010,02,19,10,13,7.20
2010,02,19,10,14,7.20
2010,02,19,10,15,7.20
2010,02,19,10,16,7.20
2010,02,19,10,17,7.30
2010,02,19,10,18,7.30
2010,02,19,10,19,7.30
2010,02,19,10,20,7.40
2010,02,19,10,21,7.40
2010,02,19,10,22,7.40
2010,02,19,10,23,7.50
2010,02,19,10,24,7.60
2010,02,19,10,25,7.60
2010,02,19,10,26,7.60
2010,02,19,10,27,7.60
2010,02,19,10,28,7.60
2010,02,19,10,29,7.60
2010,02,19,10,30,7.60
2010,02,19,10,31,7.70
2010,02,19,10,32,7.70
2010,02,19,10,33,7.70
2010,02,19,10,34,7.70
2010,02,19,10,35,7.70
2010,02,19,10,36,7.80
2010,02,19,10,37,7.80
2010,02,19,10,38,7.80
2010,02,19,10,39,7.80
2010,02,19,10,40,7.80
2010,02,19,10,41,7.80
2010,02,19,10,42,7.80
2010,02,19,10,43,7.80
2010,02,19,10,44,7.90
2010,02,19,10,45,7.90
2010,02,19,10,46,7.90
2010,02,19,10,47,7.90
2010,02,19,10,48,7.90
2010,02,19,10,49,8.00
2010,02,19,10,50,8.00
2010,02,19,10,51,8.10
2010,02,19,10,52,8.10
2010,02,19,10,53,8.10
2010,02,19,10,54,8.10
2010,02,19,10,55,8.20
2010,02,19,10,56,8.20
2010,02,19,10,57,8.20
2010,02,19,10,58,8.20
2010,02,19,10,59,8.20
2010,02,19,11,00,8.20
2010,02,19,11,01,8.20
2010,02,19,11,02,8.20
2010,02,19,11,03,8.20
2010,02,19,11,04,8.20
2010,02,19,11,05,8.20
2010,02,19,11,06,8.20
2010,02,19,11,07,8.20
2010,02,19,11,08,8.10
2010,02,19,11,09,8.10
2010,02,19,11,10,8.10
2010,02,19,11,11,8.10
2010,02,19,11,12,8.10
2010,02,19,11,13,8.10
2010,02,19,11,14,8.10
2010,02,19,11,15,8.10
2010,02,19,11,16,8.20
2010,02,19,11,17,8.20
2010,02,19,11,18,8.20
2010,02,19,11,19,8.20
2010,02,19,11,20,8.20
2010,02,19,11,21,8.20
2010,02,19,11,22,8.20
2010,02,19,11,23,8.20
2010,02,19,11,24,8.20
2010,02,19,11,25,8.20
2010,02,19,11,26,8.20
2010,02,19,11,27,8.20
2010,02,19,11,28,8.20
2010,02,19,11,29,8.30
2010,02,19,11,30,8.30
2010,02,19,11,31,8.30
2010,02,19,11,32,8.40
2010,02,19,11,33,8.40
2010,02,19,11,34,8.40
2010,02,19,11,35,8.40
2010,02,19,11,36,8.40
2010,02,19,11,37,8.50
2010,02,19,11,38,8.50
2010,02,19,11,39,8.50
2010,02,19,11,40,8.50
2010,02,19,11,41,8.50
2010,02,19,11,42,8.60
2010,02,19,11,43,8.60
2010,02,19,11,44,8.60
2010,02,19,11,45,8.70
2010,02,19,11,46,8.70
2010,02,19,11,47,8.70
2010,02,19,11,48,8.70
2010,02,19,11,49,8.70
2010,02,19,11,50,8.70
2010,02,19,11,51,8.70
2010,02,19,11,52,8.70
2010,02,19,11,53,8.70
2010,02,19,11,54,8.70
2010,02,19,11,55,8.80
2010,02,19,11,56,8.80
2010,02,19,11,57,8.80
2010,02,19,11,58,8.80
2010,02,19,11,59,8.80
2010,02,19,12,00,8.80
2010,02,19,12,01,8.80
2010,02,19,12,02,8.80
2010,02,19,12,03,8.80
2010,02,19,12,04,8.80
2010,02,19,12,05,8.90
2010,02,19,12,06,8.90
2010,02,19,12,07,8.90
2010,02,19,12,08,8.90
2010,02,19,12,09,8.90
2010,02,19,12,10,8.90
2010,02,19,12,11,8.90
2010,02,19,12,12,8.90
2010,02,19,12,13,8.90
2010,02,19,12,14,8.90
2010,02,19,12,15,9.00
2010,02,19,12,16,9.00
2010,02,19,12,17,9.10
2010,02,19,12,18,9.10
2010,02,19,12,19,9.10
2010,02,19,12,20,9.20
2010,02,19,12,21,9.20
2010,02,19,12,22,9.10
2010,02,19,12,23,9.10
2010,02,19,12,24,9.10
2010,02,19,12,25,9.00
2010,02,19,12,26,8.90
2010,02,19,12,27,8.90
2010,02,19,12,28,8.90
2010,02,19,12,29,8.90
2010,02,19,12,30,8.90
2010,02,19,12,31,8.90
2010,02,19,12,32,9.00
2010,02,19,12,33,9.00
2010,02,19,12,34,9.00
2010,02,19,12,35,9.10
2010,02,19,12,36,9.10
2010,02,19,12,37,9.10
2010,02,19,12,38,9.10
2010,02,19,12,39,9.10
2010,02,19,12,40,9.10
2010,02,19,12,41,9.00
2010,02,19,12,42,9.00
2010,02,19,12,43,9.00
2010,02,19,12,44,8.90
2010,02,19,12,45,8.90
2010,02,19,12,46,8.90
2010,02,19,12,47,8.90
2010,02,19,12,48,8.90
2010,02,19,12,49,8.80
2010,02,19,12,50,8.80
2010,02,19,12,51,8.80
2010,02,19,12,52,8.80
2010,02,19,12,53,8.80
2010,02,19,12,54,8.80
2010,02,19,12,55,8.80
2010,02,19,12,56,8.80
2010,02,19,12,57,8.80
2010,02,19,12,58,8.80
2010,02,19,12,59,8.80
2010,02,19,13,00,8.80
2010,02,19,13,01,8.80
2010,02,19,13,02,8.80
2010,02,19,13,03,8.80
2010,02,19,13,04,8.90
2010,02,19,13,05,8.90
2010,02,19,13,06,8.90
2010,02,19,13,07,8.90
2010,02,19,13,08,9.00
2010,02,19,13,09,9.00
2010,02,19,13,10,9.00
2010,02,19,13,11,9.00
2010,02,19,13,12,9.10
2010,02,19,13,13,9.10
2010,02,19,13,14,9.10
2010,02,19,13,15,9.10
2010,02,19,13,16,9.10
2010,02,19,13,17,9.10
2010,02,19,13,18,9.10
2010,02,19,13,19,9.20
2010,02,19,13,20,9.20
2010,02,19,13,21,9.20
2010,02,19,13,22,9.20
2010,02,19,13,23,9.20
2010,02,19,13,24,9.30
2010,02,19,13,25,9.30
2010,02,19,13,26,9.40
2010,02,19,13,27,9.40
2010,02,19,13,28,9.40
2010,02,19,13,29,9.50
2010,02,19,13,30,9.50
2010,02,19,13,31,9.60
2010,02,19,13,32,9.60
2010,02,19,13,33,9.60
2010,02,19,13,34,9.60
2010,02,19,13,35,9.60
2010,02,19,13,36,9.60
2010,02,19,13,37,9.70
2010,02,19,13,38,9.70
2010,02,19,13,39,9.70
2010,02,19,13,40,9.80
2010,02,19,13,41,9.80
2010,02,19,13,42,9.90
2010,02,19,13,43,9.90
2010,02,19,13,44,10.00
2010,02,19,13,45,10.10
2010,02,19,13,46,10.10
2010,02,19,13,47,10.10
2010,02,19,13,48,10.10
2010,02,19,13,49,10.10
2010,02,19,13,50,10.10
2010,02,19,13,51,10.10
2010,02,19,13,52,10.10
2010,02,19,13,53,10.10
2010,02,19,13,54,10.10
2010,02,19,13,55,10.20
2010,02,19,13,56,10.20
2010,02,19,13,57,10.20
2010,02,19,13,58,10.20
2010,02,19,13,59,10.20
2010,02,19,14,00,10.30
2010,02,19,14,01,10.30
2010,02,19,14,02,10.30
2010,02,19,14,03,10.30
2010,02,19,14,04,10.30
2010,02,19,14,05,10.40
2010,02,19,14,06,10.40
2010,02,19,14,07,10.40
2010,02,19,14,08,10.40
2010,02,19,14,09,10.40
2010,02,19,14,10,10.50
2010,02,19,14,11,10.50
2010,02,19,14,12,10.50
2010,02,19,14,13,10.60
2010,02,19,14,14,10.50
2010,02,19,14,15,10.50
2010,02,19,14,16,10.50
2010,02,19,14,17,10.50
2010,02,19,14,18,10.40
2010,02,19,14,19,10.40
2010,02,19,14,20,10.40
2010,02,19,14,21,10.30
2010,02,19,14,22,10.20
2010,02,19,14,23,10.20
2010,02,19,14,24,10.20
2010,02,19,14,25,10.20
2010,02,19,14,26,10.20
2010,02,19,14,27,10.20
2010,02,19,14,28,10.20
2010,02,19,14,29,10.20
2010,02,19,14,30,10.20
2010,02,19,14,31,10.20
2010,02,19,14,32,10.20
2010,02,19,14,33,10.20
2010,02,19,14,34,10.20
2010,02,19,14,35,10.20
2010,02,19,14,36,10.20
2010,02,19,14,37,10.30
2010,02,19,14,38,10.30
2010,02,19,14,39,10.30
2010,02,19,14,40,10.30
2010,02,19,14,41,10.30
2010,02,19,14,42,10.30
2010,02,19,14,43,10.20
2010,02,19,14,44,10.20
2010,02,19,14,45,10.10
2010,02,19,14,46,10.10
2010,02,19,14,47,10.10
2010,02,19,14,48,10.00
2010,02,19,14,49,10.00
2010,02,19,14,50,10.00
2010,02,19,14,51,9.90
2010,02,19,14,52,9.90
2010,02,19,14,53,9.90
2010,02,19,14,54,9.80
2010,02,19,14,55,9.80
2010,02,19,14,56,9.90
2010,02,19,14,57,9.90
2010,02,19,14,58,9.90
2010,02,19,15,56,8.90
2010,02,19,15,57,8.90
2010,02,19,15,58,8.90
2010,02,19,15,59,8.90
2010,02,19,16,00,8.90
2010,02,19,16,01,8.90
2010,02,19,16,02,8.90
2010,02,19,16,03,8.90
2010,02,19,16,04,8.90
2010,02,19,16,05,8.90
2010,02,19,16,06,8.90
2010,02,19,16,07,8.90
2010,02,19,16,08,8.90
2010,02,19,16,09,8.80
2010,02,19,16,10,8.80
2010,02,19,16,11,8.80
2010,02,19,16,12,8.80
2010,02,19,16,13,8.80
2010,02,19,16,14,8.80
2010,02,19,16,15,8.80
2010,02,19,16,16,8.70
2010,02,19,16,17,8.70
2010,02,19,16,18,8.80
2010,02,19,16,19,8.70
2010,02,19,16,20,8.80
2010,02,19,16,21,8.70
2010,02,19,16,22,8.70
2010,02,19,16,23,8.70
2010,02,19,16,24,8.70
2010,02,19,16,25,8.70
2010,02,19,16,26,8.60
2010,02,19,16,27,8.60
2010,02,19,16,28,8.60
2010,02,19,16,29,8.50
2010,02,19,16,30,8.50
2010,02,19,16,31,8.50
2010,02,19,16,32,8.40
2010,02,19,16,33,8.40
2010,02,19,16,34,8.30
2010,02,19,16,35,8.30
2010,02,19,16,36,8.30
2010,02,19,16,37,8.30
2010,02,19,16,38,8.20
2010,02,19,16,39,8.20
2010,02,19,16,40,8.20
2010,02,19,16,41,8.20
2010,02,19,16,42,8.10
2010,02,19,16,43,8.10
2010,02,19,16,44,8.10
2010,02,19,16,45,8.10
2010,02,19,16,46,8.10
2010,02,19,16,47,8.00
2010,02,19,16,48,8.00
2010,02,19,16,49,8.00
2010,02,19,16,50,7.90
2010,02,19,16,51,7.90
2010,02,19,16,52,7.90
2010,02,19,16,53,7.90
2010,02,19,16,54,7.90
2010,02,19,16,55,7.80
2010,02,19,16,56,7.80
2010,02,19,16,57,7.80
2010,02,19,16,58,7.80
2010,02,19,16,59,7.80
2010,02,19,17,00,7.80
2010,02,19,17,01,7.80
2010,02,19,17,02,7.80
2010,02,19,17,03,7.80
2010,02,19,17,04,7.90
2010,02,19,17,05,7.90
2010,02,19,17,06,7.90
2010,02,19,17,07,7.80
2010,02,19,17,08,7.80
2010,02,19,17,09,7.80
2010,02,19,17,10,7.70
2010,02,19,17,11,7.70
2010,02,19,17,12,7.70
2010,02,19,17,13,7.60
2010,02,19,17,14,7.60
2010,02,19,17,15,7.50
2010,02,19,17,16,7.50
2010,02,19,17,17,7.40
2010,02,19,17,18,7.40
2010,02,19,17,19,7.30
2010,02,19,17,20,7.30
2010,02,19,17,21,7.30
2010,02,19,17,22,7.20
2010,02,19,17,23,7.20
2010,02,19,17,24,7.20
2010,02,19,17,25,7.10
2010,02,19,17,26,7.10
2010,02,19,17,27,7.10
2010,02,19,17,28,7.00
2010,02,19,17,29,7.00
2010,02,19,17,30,7.00
2010,02,19,17,31,6.90
2010,02,19,17,32,6.90
2010,02,19,17,33,6.90
2010,02,19,17,34,6.90
2010,02,19,17,35,6.90
2010,02,19,17,36,6.80
2010,02,19,17,37,6.80
2010,02,19,17,38,6.80
2010,02,19,17,39,6.80
2010,02,19,17,40,6.80
2010,02,19,17,41,6.80
2010,02,19,17,42,6.80
2010,02,19,17,43,6.80
2010,02,19,17,44,6.80
2010,02,19,17,45,6.80
2010,02,19,17,46,6.70
2010,02,19,17,47,6.70
2010,02,19,17,48,6.70
2010,02,19,17,49,6.70
2010,02,19,17,50,6.60
2010,02,19,17,51,6.60
2010,02,19,17,52,6.60
2010,02,19,17,53,6.60
2010,02,19,17,54,6.60
2010,02,19,17,55,6.60
2010,02,19,17,56,6.60
2010,02,19,17,57,6.60
2010,02,19,17,58,6.60
2010,02,19,17,59,6.60
2010,02,19,18,00,6.60
2010,02,19,18,01,6.70
2010,02,19,18,02,6.70
2010,02,19,18,03,6.70
2010,02,19,18,04,6.70
2010,02,19,18,05,6.70
2010,02,19,18,06,6.70
2010,02,19,18,07,6.70
2010,02,19,18,08,6.70
2010,02,19,18,09,6.70
2010,02,19,18,10,6.70
2010,02,19,18,11,6.60
2010,02,19,18,12,6.60
2010,02,19,18,13,6.60
2010,02,19,18,14,6.60
2010,02,19,18,15,6.60
2010,02,19,18,16,6.60
2010,02,19,18,17,6.50
2010,02,19,18,18,6.50
2010,02,19,18,19,6.50
2010,02,19,18,20,6.50
2010,02,19,18,21,6.50
2010,02,19,18,22,6.50
2010,02,19,18,23,6.50
2010,02,19,18,24,6.50
2010,02,19,18,25,6.50
2010,02,19,18,26,6.50
2010,02,19,18,27,6.50
2010,02,19,18,28,6.50
2010,02,19,18,29,6.50
2010,02,19,18,30,6.50
2010,02,19,18,31,6.50
2010,02,19,18,32,6.50
2010,02,19,18,33,6.50
2010,02,19,18,34,6.60
2010,02,19,18,35,6.60
2010,02,19,18,36,6.60
2010,02,19,18,37,6.60
2010,02,19,18,38,6.70
2010,02,19,18,39,6.70
2010,02,19,18,40,6.70
2010,02,19,18,41,6.70
2010,02,19,18,42,6.70
2010,02,19,18,43,6.60
2010,02,19,18,44,6.60
2010,02,19,18,45,6.60
2010,02,19,18,46,6.60
2010,02,19,18,47,6.60
2010,02,19,18,48,6.60
2010,02,19,18,49,6.50
2010,02,19,18,50,6.50
2010,02,19,18,51,6.50
2010,02,19,18,52,6.40
2010,02,19,18,53,6.40
2010,02,19,18,54,6.40
2010,02,19,18,55,6.40
2010,02,19,18,56,6.40
2010,02,19,18,57,6.40
2010,02,19,18,58,6.30
2010,02,19,18,59,6.30
2010,02,19,19,00,6.30
2010,02,19,19,01,6.30
2010,02,19,19,02,6.30
2010,02,19,19,03,6.30
2010,02,19,19,04,6.30
2010,02,19,19,05,6.30
2010,02,19,19,06,6.30
2010,02,19,19,07,6.30
2010,02,19,19,08,6.30
2010,02,19,19,09,6.40
2010,02,19,19,10,6.40
2010,02,19,19,11,6.40
2010,02,19,19,12,6.40
2010,02,19,19,13,6.30
2010,02,19,19,14,6.30
2010,02,19,19,15,6.30
2010,02,19,19,16,6.30
2010,02,19,19,17,6.30
2010,02,19,19,18,6.30
2010,02,19,19,19,6.30
2010,02,19,19,20,6.20